Time,TemperatureF,DewpointF,PressureIn,WindDirection,WindDirectionDegrees,WindSpeedMPH,WindSpeedGustMPH,Humidity,HourlyPrecipIn,Conditions,Clouds,dailyrainin,SoftwareType,DateUTC
2013-05-04 00:01:00,32.9,30.9,29.78,North,0,0.0,0.2,92,0.00,,,0.00,WUHU216HW,2013-05-04 05:01:00,
2013-05-04 00:06:00,32.9,30.9,29.78,North,0,0.2,0.4,92,0.00,,,0.00,WUHU216HW,2013-05-04 05:06:00,
2013-05-04 00:11:00,32.9,30.9,29.78,North,0,0.2,0.4,92,0.00,,,0.00,WUHU216HW,2013-05-04 05:11:00,
2013-05-04 00:16:00,32.9,30.9,29.78,North,0,0.4,0.7,92,0.00,,,0.00,WUHU216HW,2013-05-04 05:16:00,
2013-05-04 00:21:00,32.9,30.9,29.78,North,0,0.4,0.7,92,0.00,,,0.00,WUHU216HW,2013-05-04 05:21:00,
2013-05-04 00:26:00,32.9,30.9,29.78,North,0,0.5,1.8,92,0.00,,,0.00,WUHU216HW,2013-05-04 05:26:00,
2013-05-04 00:31:00,32.9,30.9,29.78,SW,225,0.4,1.8,92,0.00,,,0.00,WUHU216HW,2013-05-04 05:31:00,
2013-05-04 00:36:00,32.9,30.9,29.77,NNW,333,0.4,1.1,92,0.00,,,0.00,WUHU216HW,2013-05-04 05:36:00,
2013-05-04 00:41:00,32.9,30.9,29.77,NW,315,0.2,1.1,92,0.00,,,0.00,WUHU216HW,2013-05-04 05:41:00,
2013-05-04 00:46:00,32.9,30.9,29.77,NW,315,0.0,0.4,92,0.00,,,0.00,WUHU216HW,2013-05-04 05:46:00,
2013-05-04 00:51:00,32.9,30.9,29.77,West,270,0.9,0.9,92,0.00,,,0.00,WUHU216HW,2013-05-04 05:51:00,
2013-05-04 00:56:00,32.9,30.9,29.77,West,270,0.2,0.9,92,0.00,,,0.00,WUHU216HW,2013-05-04 05:56:00,
2013-05-04 01:01:00,32.9,30.9,29.77,WSW,248,0.2,0.9,92,0.00,,,0.00,WUHU216HW,2013-05-04 06:01:00,
2013-05-04 01:06:00,32.9,30.9,29.77,WSW,248,0.2,0.9,92,0.00,,,0.00,WUHU216HW,2013-05-04 06:06:00,
2013-05-04 01:11:00,32.9,31.2,29.77,WSW,248,0.3,0.9,93,0.00,,,0.00,WUHU216HW,2013-05-04 06:11:00,
2013-05-04 01:16:00,32.9,31.2,29.77,West,269,0.6,1.1,93,0.00,,,0.00,WUHU216HW,2013-05-04 06:16:00,
2013-05-04 01:21:00,32.9,31.2,29.77,West,270,0.2,1.1,93,0.00,,,0.00,WUHU216HW,2013-05-04 06:21:00,
2013-05-04 01:26:00,32.9,31.2,29.77,NNW,348,0.5,1.1,93,0.00,,,0.00,WUHU216HW,2013-05-04 06:26:00,
2013-05-04 01:31:00,32.9,30.9,29.76,North,0,0.2,1.1,92,0.01,,,0.01,WUHU216HW,2013-05-04 06:31:00,
2013-05-04 01:36:00,32.9,30.9,29.76,SW,225,0.0,0.7,92,0.01,,,0.01,WUHU216HW,2013-05-04 06:36:00,
2013-05-04 01:41:00,32.9,30.9,29.76,North,0,0.3,0.9,92,0.01,,,0.01,WUHU216HW,2013-05-04 06:41:00,
2013-05-04 01:46:00,32.9,30.9,29.75,South,180,0.0,1.1,92,0.01,,,0.01,WUHU216HW,2013-05-04 06:46:00,
2013-05-04 01:51:00,32.9,31.2,29.75,South,180,0.4,1.1,93,0.01,,,0.01,WUHU216HW,2013-05-04 06:51:00,
2013-05-04 01:56:00,32.9,31.2,29.75,South,180,0.4,0.9,93,0.01,,,0.01,WUHU216HW,2013-05-04 06:56:00,
2013-05-04 02:01:00,32.9,31.2,29.75,South,180,0.2,1.1,93,0.01,,,0.01,WUHU216HW,2013-05-04 07:01:00,
2013-05-04 02:06:00,32.9,31.2,29.75,South,180,0.4,1.1,93,0.01,,,0.01,WUHU216HW,2013-05-04 07:06:00,
2013-05-04 02:11:00,32.9,31.2,29.75,South,180,0.0,0.7,93,0.01,,,0.01,WUHU216HW,2013-05-04 07:11:00,
2013-05-04 02:16:00,32.9,31.2,29.75,South,180,0.0,0.4,93,0.01,,,0.01,WUHU216HW,2013-05-04 07:16:00,
2013-05-04 02:21:00,32.9,31.2,29.75,South,180,0.0,0.0,93,0.01,,,0.01,WUHU216HW,2013-05-04 07:21:00,
2013-05-04 02:26:00,32.9,31.2,29.75,South,180,0.0,0.0,93,0.01,,,0.01,WUHU216HW,2013-05-04 07:26:00,
2013-05-04 02:31:00,32.9,31.2,29.74,South,180,0.0,0.0,93,0.00,,,0.01,WUHU216HW,2013-05-04 07:31:00,
2013-05-04 02:36:00,32.9,31.2,29.74,South,180,0.0,0.0,93,0.00,,,0.01,WUHU216HW,2013-05-04 07:36:00,
2013-05-04 02:41:00,32.9,31.2,29.74,South,180,0.0,0.0,93,0.00,,,0.01,WUHU216HW,2013-05-04 07:41:00,
2013-05-04 02:46:00,32.9,31.2,29.74,South,180,0.0,0.0,93,0.00,,,0.01,WUHU216HW,2013-05-04 07:46:00,
2013-05-04 02:51:00,32.9,31.2,29.74,South,180,0.0,0.0,93,0.00,,,0.01,WUHU216HW,2013-05-04 07:51:00,
2013-05-04 02:56:00,32.9,31.2,29.74,South,180,0.0,0.0,93,0.00,,,0.01,WUHU216HW,2013-05-04 07:56:00,
2013-05-04 03:01:00,32.9,31.2,29.73,South,180,0.0,0.0,93,0.00,,,0.01,WUHU216HW,2013-05-04 08:01:00,
2013-05-04 03:06:00,32.9,31.2,29.73,South,180,0.0,0.0,93,0.00,,,0.01,WUHU216HW,2013-05-04 08:06:00,
2013-05-04 03:11:00,32.9,31.2,29.73,South,180,0.0,0.0,93,0.00,,,0.01,WUHU216HW,2013-05-04 08:11:00,
2013-05-04 03:16:00,32.9,31.2,29.73,South,180,0.0,0.0,93,0.00,,,0.01,WUHU216HW,2013-05-04 08:16:00,
2013-05-04 03:21:00,32.9,30.9,29.73,South,180,0.0,0.0,92,0.00,,,0.01,WUHU216HW,2013-05-04 08:21:00,
2013-05-04 03:26:00,32.9,30.9,29.73,South,180,0.0,0.0,92,0.00,,,0.01,WUHU216HW,2013-05-04 08:26:00,
2013-05-04 03:31:00,32.9,30.9,29.73,South,180,0.0,0.0,92,0.00,,,0.01,WUHU216HW,2013-05-04 08:31:00,
2013-05-04 03:36:00,32.9,30.9,29.74,South,180,0.0,0.0,92,0.00,,,0.01,WUHU216HW,2013-05-04 08:36:00,
2013-05-04 03:41:00,32.9,30.9,29.74,South,180,0.0,0.0,92,0.00,,,0.01,WUHU216HW,2013-05-04 08:41:00,
2013-05-04 03:46:00,32.9,30.9,29.73,South,180,0.0,0.0,92,0.00,,,0.01,WUHU216HW,2013-05-04 08:46:00,
2013-05-04 03:51:00,32.9,30.9,29.73,South,180,0.0,0.0,92,0.00,,,0.01,WUHU216HW,2013-05-04 08:51:00,
2013-05-04 03:56:00,32.9,30.9,29.73,South,180,0.0,0.0,92,0.00,,,0.01,WUHU216HW,2013-05-04 08:56:00,
2013-05-04 04:01:00,32.9,30.9,29.73,South,180,0.0,0.0,92,0.00,,,0.01,WUHU216HW,2013-05-04 09:01:00,
2013-05-04 04:06:00,32.9,30.9,29.73,South,180,0.0,0.0,92,0.00,,,0.01,WUHU216HW,2013-05-04 09:06:00,
2013-05-04 04:11:00,32.9,30.9,29.73,South,180,0.0,0.0,92,0.00,,,0.01,WUHU216HW,2013-05-04 09:11:00,
2013-05-04 04:16:00,32.9,30.9,29.73,South,180,0.0,0.0,92,0.00,,,0.01,WUHU216HW,2013-05-04 09:16:00,
2013-05-04 04:21:00,33.1,31.1,29.73,South,180,0.0,0.0,92,0.00,,,0.01,WUHU216HW,2013-05-04 09:21:00,
2013-05-04 04:26:00,33.1,31.1,29.73,South,180,0.0,0.0,92,0.00,,,0.01,WUHU216HW,2013-05-04 09:26:00,
2013-05-04 04:31:00,33.1,31.1,29.73,South,180,0.0,0.0,92,0.00,,,0.01,WUHU216HW,2013-05-04 09:31:00,
2013-05-04 04:36:00,33.1,31.1,29.73,South,180,0.0,0.0,92,0.00,,,0.01,WUHU216HW,2013-05-04 09:36:00,
2013-05-04 04:41:00,33.1,31.1,29.73,South,180,0.0,0.0,92,0.00,,,0.01,WUHU216HW,2013-05-04 09:41:00,
2013-05-04 04:46:00,33.1,31.1,29.73,South,180,0.0,0.0,92,0.00,,,0.01,WUHU216HW,2013-05-04 09:46:00,
2013-05-04 04:51:00,33.1,31.1,29.73,South,180,0.0,0.0,92,0.00,,,0.01,WUHU216HW,2013-05-04 09:51:00,
2013-05-04 04:56:00,33.1,31.1,29.73,South,180,0.0,0.0,92,0.00,,,0.01,WUHU216HW,2013-05-04 09:56:00,
2013-05-04 05:01:00,33.1,31.1,29.73,South,180,0.0,0.0,92,0.00,,,0.01,WUHU216HW,2013-05-04 10:01:00,
2013-05-04 05:06:00,33.1,31.1,29.73,South,180,0.0,0.0,92,0.00,,,0.01,WUHU216HW,2013-05-04 10:06:00,
2013-05-04 05:11:00,33.1,31.1,29.73,South,180,0.0,0.0,92,0.00,,,0.01,WUHU216HW,2013-05-04 10:11:00,
2013-05-04 05:16:00,33.1,31.1,29.73,South,180,0.0,0.0,92,0.00,,,0.01,WUHU216HW,2013-05-04 10:16:00,
2013-05-04 05:21:00,33.1,31.1,29.73,South,180,0.0,0.0,92,0.00,,,0.01,WUHU216HW,2013-05-04 10:21:00,
2013-05-04 05:26:00,33.1,31.1,29.73,South,180,0.0,0.0,92,0.00,,,0.01,WUHU216HW,2013-05-04 10:26:00,
2013-05-04 05:31:00,33.1,31.1,29.73,South,180,0.0,0.0,92,0.00,,,0.01,WUHU216HW,2013-05-04 10:31:00,
2013-05-04 05:36:00,33.1,31.1,29.72,South,180,0.0,0.0,92,0.00,,,0.01,WUHU216HW,2013-05-04 10:36:00,
2013-05-04 05:41:00,33.1,31.1,29.72,South,180,0.0,0.0,92,0.00,,,0.01,WUHU216HW,2013-05-04 10:41:00,
2013-05-04 05:46:00,33.3,31.1,29.72,South,180,0.0,0.0,92,0.00,,,0.01,WUHU216HW,2013-05-04 10:46:00,
2013-05-04 05:51:00,33.1,31.1,29.72,South,180,0.0,0.0,92,0.00,,,0.01,WUHU216HW,2013-05-04 10:51:00,
2013-05-04 05:56:00,33.1,31.1,29.73,South,180,0.0,0.0,92,0.00,,,0.01,WUHU216HW,2013-05-04 10:56:00,
2013-05-04 06:01:00,33.1,31.1,29.72,South,180,0.0,0.0,92,0.00,,,0.01,WUHU216HW,2013-05-04 11:01:00,
2013-05-04 06:06:00,33.1,31.1,29.73,South,180,0.0,0.0,92,0.00,,,0.01,WUHU216HW,2013-05-04 11:06:00,
2013-05-04 06:11:00,33.1,31.1,29.73,South,180,0.0,0.0,92,0.00,,,0.01,WUHU216HW,2013-05-04 11:11:00,
2013-05-04 06:16:00,33.1,31.1,29.73,South,180,0.0,0.0,92,0.00,,,0.01,WUHU216HW,2013-05-04 11:16:00,
2013-05-04 06:21:00,33.1,31.1,29.73,South,180,0.0,0.0,92,0.00,,,0.01,WUHU216HW,2013-05-04 11:21:00,
2013-05-04 06:26:00,33.3,31.1,29.73,South,180,0.0,0.0,92,0.00,,,0.01,WUHU216HW,2013-05-04 11:26:00,
2013-05-04 06:31:00,33.3,31.1,29.73,South,180,0.0,0.0,92,0.00,,,0.01,WUHU216HW,2013-05-04 11:31:00,
2013-05-04 06:36:00,33.3,31.1,29.73,South,180,0.0,0.0,92,0.00,,,0.01,WUHU216HW,2013-05-04 11:36:00,
2013-05-04 06:41:00,33.3,31.1,29.73,South,180,0.0,0.0,92,0.00,,,0.01,WUHU216HW,2013-05-04 11:41:00,
2013-05-04 06:47:00,33.3,31.1,29.73,South,180,0.0,0.0,92,0.00,,,0.01,WUHU216HW,2013-05-04 11:47:00,
2013-05-04 06:52:00,33.3,31.1,29.73,South,180,0.0,0.0,92,0.00,,,0.01,WUHU216HW,2013-05-04 11:52:00,
2013-05-04 06:57:00,33.5,31.3,29.73,South,180,0.0,0.0,92,0.00,,,0.01,WUHU216HW,2013-05-04 11:57:00,
2013-05-04 07:02:00,33.5,31.3,29.73,South,180,0.0,0.0,92,0.00,,,0.01,WUHU216HW,2013-05-04 12:02:00,
2013-05-04 07:07:00,33.5,31.3,29.73,South,180,0.0,0.0,92,0.01,,,0.02,WUHU216HW,2013-05-04 12:07:00,
2013-05-04 07:12:00,33.5,31.3,29.74,South,180,0.0,0.0,92,0.01,,,0.02,WUHU216HW,2013-05-04 12:12:00,
2013-05-04 07:18:00,33.7,31.5,29.74,South,180,0.0,0.0,92,0.01,,,0.02,WUHU216HW,2013-05-04 12:18:00,
2013-05-04 07:23:00,33.8,32.0,29.73,South,180,0.0,0.0,93,0.01,,,0.02,WUHU216HW,2013-05-04 12:23:00,
2013-05-04 07:29:00,33.8,32.0,29.73,South,180,0.0,0.0,93,0.01,,,0.02,WUHU216HW,2013-05-04 12:29:00,
2013-05-04 07:34:00,33.8,32.0,29.73,South,180,0.0,0.0,93,0.01,,,0.02,WUHU216HW,2013-05-04 12:34:00,
2013-05-04 07:39:00,33.8,32.0,29.73,South,180,0.0,0.0,93,0.01,,,0.02,WUHU216HW,2013-05-04 12:39:00,
2013-05-04 07:44:00,33.8,32.0,29.73,South,180,0.0,0.0,93,0.01,,,0.02,WUHU216HW,2013-05-04 12:44:00,
2013-05-04 07:49:00,34.0,32.1,29.73,South,180,0.0,0.0,93,0.01,,,0.02,WUHU216HW,2013-05-04 12:49:00,
2013-05-04 07:54:00,34.2,32.3,29.74,South,180,0.0,0.0,93,0.01,,,0.02,WUHU216HW,2013-05-04 12:54:00,
2013-05-04 07:59:00,34.2,32.3,29.74,South,180,0.0,0.0,93,0.01,,,0.02,WUHU216HW,2013-05-04 12:59:00,
2013-05-04 08:04:00,34.4,32.5,29.74,South,180,0.0,0.0,93,0.01,,,0.02,WUHU216HW,2013-05-04 13:04:00,
2013-05-04 08:09:00,34.6,32.7,29.74,South,180,0.0,0.4,93,0.01,,,0.03,WUHU216HW,2013-05-04 13:09:00,
2013-05-04 08:14:00,34.6,32.7,29.74,South,180,0.0,0.4,93,0.01,,,0.03,WUHU216HW,2013-05-04 13:14:00,
2013-05-04 08:19:00,34.7,32.9,29.74,South,180,0.0,0.2,93,0.01,,,0.03,WUHU216HW,2013-05-04 13:19:00,
2013-05-04 08:24:00,34.9,33.0,29.74,South,180,0.0,0.2,93,0.01,,,0.03,WUHU216HW,2013-05-04 13:24:00,
2013-05-04 08:29:00,34.7,32.9,29.74,South,180,0.0,0.2,93,0.01,,,0.03,WUHU216HW,2013-05-04 13:29:00,
2013-05-04 08:34:00,34.9,33.0,29.74,South,180,0.0,0.2,93,0.02,,,0.04,WUHU216HW,2013-05-04 13:34:00,
2013-05-04 08:39:00,34.9,33.0,29.74,South,180,0.0,0.2,93,0.02,,,0.04,WUHU216HW,2013-05-04 13:39:00,
2013-05-04 08:44:00,34.9,33.0,29.74,South,180,0.0,0.0,93,0.02,,,0.04,WUHU216HW,2013-05-04 13:44:00,
2013-05-04 08:49:00,35.1,33.2,29.74,South,180,0.0,0.0,93,0.02,,,0.04,WUHU216HW,2013-05-04 13:49:00,
2013-05-04 08:54:00,35.1,33.2,29.74,ENE,68,0.0,0.4,93,0.03,,,0.05,WUHU216HW,2013-05-04 13:54:00,
2013-05-04 08:59:00,35.3,33.4,29.74,NNE,23,0.0,0.9,93,0.03,,,0.05,WUHU216HW,2013-05-04 13:59:00,
2013-05-04 09:04:00,35.1,33.2,29.74,NNE,23,0.4,0.9,93,0.03,,,0.05,WUHU216HW,2013-05-04 14:04:00,
2013-05-04 09:09:00,34.9,33.0,29.75,ESE,113,0.1,0.4,93,0.03,,,0.06,WUHU216HW,2013-05-04 14:09:00,
2013-05-04 09:14:00,35.1,33.2,29.75,NNE,23,0.2,0.7,93,0.03,,,0.06,WUHU216HW,2013-05-04 14:14:00,
2013-05-04 09:19:00,35.1,33.2,29.75,NNE,23,0.1,0.7,93,0.04,,,0.07,WUHU216HW,2013-05-04 14:19:00,
2013-05-04 09:24:00,35.3,33.4,29.75,NNE,23,0.0,0.4,93,0.04,,,0.07,WUHU216HW,2013-05-04 14:24:00,
2013-05-04 09:29:00,35.3,33.4,29.75,NNE,23,0.0,0.0,93,0.04,,,0.07,WUHU216HW,2013-05-04 14:29:00,
2013-05-04 09:34:00,35.6,33.8,29.75,ESE,113,0.0,0.2,93,0.05,,,0.09,WUHU216HW,2013-05-04 14:34:00,
2013-05-04 09:39:00,35.8,33.9,29.75,ESE,113,0.3,0.4,93,0.05,,,0.09,WUHU216HW,2013-05-04 14:39:00,
2013-05-04 09:44:00,36.0,34.1,29.75,ESE,113,0.1,0.4,93,0.05,,,0.09,WUHU216HW,2013-05-04 14:44:00,
2013-05-04 09:49:00,36.0,34.1,29.75,ESE,113,0.3,0.4,93,0.05,,,0.09,WUHU216HW,2013-05-04 14:49:00,
2013-05-04 09:54:00,36.4,34.5,29.75,SE,135,0.4,0.9,93,0.04,,,0.09,WUHU216HW,2013-05-04 14:54:00,
2013-05-04 09:59:00,36.4,34.5,29.75,SE,135,0.0,0.9,93,0.06,,,0.11,WUHU216HW,2013-05-04 14:59:00,
2013-05-04 10:04:00,36.7,34.8,29.75,SW,225,1.1,1.1,93,0.06,,,0.11,WUHU216HW,2013-05-04 15:04:00,
2013-05-04 10:09:00,37.1,35.2,29.75,SW,225,0.9,1.8,93,0.05,,,0.11,WUHU216HW,2013-05-04 15:09:00,
2013-05-04 10:14:00,37.1,35.2,29.75,SW,225,0.6,1.8,93,0.05,,,0.11,WUHU216HW,2013-05-04 15:14:00,
2013-05-04 10:19:00,37.3,35.1,29.75,SW,225,0.5,1.8,92,0.06,,,0.13,WUHU216HW,2013-05-04 15:19:00,
2013-05-04 10:24:00,37.4,35.3,29.75,WSW,238,0.8,1.8,92,0.06,,,0.13,WUHU216HW,2013-05-04 15:24:00,
2013-05-04 10:29:00,37.6,35.5,29.76,SE,127,0.6,1.1,92,0.08,,,0.15,WUHU216HW,2013-05-04 15:29:00,
2013-05-04 10:34:00,38.2,36.0,29.76,WSW,248,1.1,1.1,92,0.07,,,0.16,WUHU216HW,2013-05-04 15:34:00,
2013-05-04 10:39:00,38.2,35.7,29.76,SW,225,0.1,1.1,91,0.07,,,0.16,WUHU216HW,2013-05-04 15:39:00,
2013-05-04 10:44:00,38.3,36.2,29.76,NNE,23,0.4,0.7,92,0.09,,,0.18,WUHU216HW,2013-05-04 15:44:00,
2013-05-04 10:49:00,38.5,36.1,29.76,NW,315,0.9,0.9,91,0.09,,,0.18,WUHU216HW,2013-05-04 15:49:00,
2013-05-04 10:54:00,38.0,35.6,29.76,North,0,1.1,1.1,91,0.09,,,0.18,WUHU216HW,2013-05-04 15:54:00,
2013-05-04 10:59:00,38.2,35.7,29.76,NW,315,0.4,1.6,91,0.07,,,0.18,WUHU216HW,2013-05-04 15:59:00,
2013-05-04 11:04:00,38.5,36.1,29.76,WSW,255,0.3,1.6,91,0.09,,,0.20,WUHU216HW,2013-05-04 16:04:00,
2013-05-04 11:09:00,39.1,36.9,29.76,NNE,23,1.1,1.1,92,0.09,,,0.20,WUHU216HW,2013-05-04 16:09:00,
2013-05-04 11:14:00,39.1,36.6,29.76,West,265,0.4,1.1,91,0.09,,,0.20,WUHU216HW,2013-05-04 16:14:00,
2013-05-04 11:19:00,39.2,36.8,29.77,WNW,297,0.3,1.1,91,0.09,,,0.22,WUHU216HW,2013-05-04 16:19:00,
2013-05-04 11:24:00,39.2,36.3,29.76,WNW,293,0.4,1.6,89,0.09,,,0.22,WUHU216HW,2013-05-04 16:24:00,
2013-05-04 11:29:00,39.1,36.4,29.77,NW,315,0.9,1.6,90,0.08,,,0.23,WUHU216HW,2013-05-04 16:29:00,
2013-05-04 11:34:00,38.9,36.2,29.77,NNW,338,1.1,1.1,90,0.07,,,0.23,WUHU216HW,2013-05-04 16:34:00,
2013-05-04 11:39:00,38.5,35.8,29.77,North,0,0.9,1.1,90,0.07,,,0.23,WUHU216HW,2013-05-04 16:39:00,
2013-05-04 11:44:00,38.5,35.6,29.77,NE,45,0.1,0.9,89,0.06,,,0.24,WUHU216HW,2013-05-04 16:44:00,
2013-05-04 11:49:00,38.5,35.8,29.77,North,0,0.9,0.9,90,0.06,,,0.24,WUHU216HW,2013-05-04 16:49:00,
2013-05-04 11:54:00,38.5,35.6,29.77,NNW,344,0.6,1.3,89,0.06,,,0.24,WUHU216HW,2013-05-04 16:54:00,
2013-05-04 11:59:00,38.5,35.6,29.77,NNW,338,0.4,1.3,89,0.07,,,0.25,WUHU216HW,2013-05-04 16:59:00,
2013-05-04 12:04:00,39.1,36.4,29.77,North,0,1.6,1.6,90,0.05,,,0.25,WUHU216HW,2013-05-04 17:04:00,
2013-05-04 12:09:00,39.2,36.3,29.77,NNE,23,0.4,1.6,89,0.05,,,0.25,WUHU216HW,2013-05-04 17:09:00,
2013-05-04 12:14:00,39.8,35.9,29.77,West,270,1.1,1.3,86,0.06,,,0.26,WUHU216HW,2013-05-04 17:14:00,
2013-05-04 12:19:00,40.0,36.4,29.77,NNW,338,0.1,1.3,87,0.04,,,0.26,WUHU216HW,2013-05-04 17:19:00,
2013-05-04 12:24:00,40.5,36.9,29.77,NNE,17,1.4,2.0,87,0.05,,,0.27,WUHU216HW,2013-05-04 17:24:00,
2013-05-04 12:29:00,40.7,36.8,29.77,NW,310,0.4,2.0,86,0.04,,,0.27,WUHU216HW,2013-05-04 17:29:00,
2013-05-04 12:34:00,41.0,37.5,29.77,WNW,282,1.0,2.0,87,0.04,,,0.27,WUHU216HW,2013-05-04 17:34:00,
2013-05-04 12:39:00,41.2,37.6,29.77,North,0,1.1,1.6,87,0.04,,,0.28,WUHU216HW,2013-05-04 17:39:00,
2013-05-04 12:44:00,40.9,35.7,29.77,West,270,1.3,1.8,82,0.04,,,0.28,WUHU216HW,2013-05-04 17:44:00,
2013-05-04 12:49:00,41.2,36.7,29.77,SE,135,0.4,1.8,84,0.04,,,0.28,WUHU216HW,2013-05-04 17:49:00,
2013-05-04 12:54:00,41.9,37.5,29.77,NNW,338,1.8,1.8,84,0.05,,,0.29,WUHU216HW,2013-05-04 17:54:00,
2013-05-04 12:59:00,41.9,36.2,29.77,ESE,113,0.2,1.8,80,0.04,,,0.29,WUHU216HW,2013-05-04 17:59:00,
2013-05-04 13:04:00,41.9,36.5,29.77,NW,319,1.0,1.6,81,0.04,,,0.29,WUHU216HW,2013-05-04 18:04:00,
2013-05-04 13:09:00,41.9,37.1,29.77,North,350,1.2,1.6,83,0.05,,,0.30,WUHU216HW,2013-05-04 18:09:00,
2013-05-04 13:14:00,42.3,36.5,29.78,West,270,1.1,1.8,80,0.04,,,0.30,WUHU216HW,2013-05-04 18:14:00,
2013-05-04 13:19:00,42.5,37.0,29.77,NNW,338,0.4,1.8,81,0.04,,,0.30,WUHU216HW,2013-05-04 18:19:00,
2013-05-04 13:24:00,42.7,35.9,29.77,WNW,299,0.7,2.5,77,0.03,,,0.30,WUHU216HW,2013-05-04 18:24:00,
2013-05-04 13:29:00,42.5,37.0,29.78,SW,234,0.8,2.5,81,0.04,,,0.31,WUHU216HW,2013-05-04 18:29:00,
2013-05-04 13:34:00,42.7,36.5,29.78,West,270,1.1,2.2,79,0.04,,,0.31,WUHU216HW,2013-05-04 18:34:00,
2013-05-04 13:39:00,42.8,37.1,29.78,NW,317,1.0,1.8,80,0.03,,,0.31,WUHU216HW,2013-05-04 18:39:00,
2013-05-04 13:44:00,43.0,36.9,29.78,North,353,1.0,1.8,79,0.03,,,0.31,WUHU216HW,2013-05-04 18:44:00,
2013-05-04 13:49:00,43.4,37.3,29.78,WNW,293,3.4,3.4,79,0.03,,,0.31,WUHU216HW,2013-05-04 18:49:00,
2013-05-04 13:54:00,43.0,36.6,29.79,NW,315,2.0,3.4,78,0.03,,,0.32,WUHU216HW,2013-05-04 18:54:00,
2013-05-04 13:59:00,42.5,36.4,29.79,SW,223,1.5,2.2,79,0.03,,,0.32,WUHU216HW,2013-05-04 18:59:00,
2013-05-04 14:04:00,42.1,35.7,29.78,WSW,248,1.8,2.2,78,0.03,,,0.32,WUHU216HW,2013-05-04 19:04:00,
2013-05-04 14:09:00,42.1,37.3,29.78,SSW,203,0.7,1.8,83,0.02,,,0.32,WUHU216HW,2013-05-04 19:09:00,
2013-05-04 14:14:00,42.3,36.8,29.78,North,0,2.5,2.5,81,0.02,,,0.32,WUHU216HW,2013-05-04 19:14:00,
2013-05-04 14:19:00,42.5,37.0,29.78,NW,309,0.7,2.5,81,0.02,,,0.32,WUHU216HW,2013-05-04 19:19:00,
2013-05-04 14:24:00,42.8,37.7,29.78,NW,315,1.8,1.8,82,0.02,,,0.32,WUHU216HW,2013-05-04 19:24:00,
2013-05-04 14:29:00,43.2,37.7,29.78,NNW,338,0.7,1.8,81,0.01,,,0.32,WUHU216HW,2013-05-04 19:29:00,
2013-05-04 14:34:00,43.9,38.4,29.79,NNE,18,3.0,4.7,81,0.01,,,0.32,WUHU216HW,2013-05-04 19:34:00,
2013-05-04 14:39:00,43.9,38.2,29.79,NNE,23,3.6,4.7,80,0.01,,,0.32,WUHU216HW,2013-05-04 19:39:00,
2013-05-04 14:44:00,44.1,37.4,29.79,WNW,300,1.5,3.6,77,0.01,,,0.32,WUHU216HW,2013-05-04 19:44:00,
2013-05-04 14:49:00,44.3,38.2,29.79,North,0,0.4,3.4,79,0.01,,,0.32,WUHU216HW,2013-05-04 19:49:00,
2013-05-04 14:54:00,44.8,38.3,29.79,North,0,4.0,4.0,78,0.00,,,0.32,WUHU216HW,2013-05-04 19:54:00,
2013-05-04 14:59:00,44.8,38.1,29.79,NNE,23,2.3,4.0,77,0.00,,,0.32,WUHU216HW,2013-05-04 19:59:00,
2013-05-04 15:04:00,45.0,37.9,29.80,NNW,341,1.8,4.0,76,0.00,,,0.32,WUHU216HW,2013-05-04 20:04:00,
2013-05-04 15:09:00,44.8,38.1,29.80,North,0,1.9,3.1,77,0.00,,,0.32,WUHU216HW,2013-05-04 20:09:00,
2013-05-04 15:14:00,44.5,37.7,29.80,NNE,23,1.8,4.7,77,0.00,,,0.32,WUHU216HW,2013-05-04 20:14:00,
2013-05-04 15:19:00,44.6,37.9,29.80,SW,219,0.6,4.7,77,0.00,,,0.32,WUHU216HW,2013-05-04 20:19:00,
2013-05-04 15:24:00,44.8,37.4,29.79,North,0,2.8,3.4,75,0.00,,,0.32,WUHU216HW,2013-05-04 20:24:00,
2013-05-04 15:29:00,44.8,37.0,29.80,NNW,331,0.7,3.4,74,0.00,,,0.32,WUHU216HW,2013-05-04 20:29:00,
2013-05-04 15:34:00,44.6,37.2,29.80,ENE,58,0.6,3.8,75,0.00,,,0.32,WUHU216HW,2013-05-04 20:34:00,
2013-05-04 15:39:00,44.3,37.2,29.80,North,353,1.8,4.5,76,0.00,,,0.32,WUHU216HW,2013-05-04 20:39:00,
2013-05-04 15:44:00,44.3,37.5,29.80,NNE,23,3.8,4.5,77,0.00,,,0.32,WUHU216HW,2013-05-04 20:44:00,
2013-05-04 15:49:00,44.3,37.2,29.80,North,0,2.5,3.8,76,0.00,,,0.32,WUHU216HW,2013-05-04 20:49:00,
2013-05-04 15:54:00,44.6,37.5,29.80,NNW,338,2.5,4.0,76,0.00,,,0.32,WUHU216HW,2013-05-04 20:54:00,
2013-05-04 15:59:00,44.8,37.0,29.80,North,351,0.6,4.0,74,0.00,,,0.32,WUHU216HW,2013-05-04 20:59:00,
2013-05-04 16:04:00,45.2,38.1,29.80,WNW,293,1.0,4.0,76,0.00,,,0.32,WUHU216HW,2013-05-04 21:04:00,
2013-05-04 16:09:00,45.0,37.5,29.80,NNW,348,1.7,4.0,75,0.00,,,0.32,WUHU216HW,2013-05-04 21:09:00,
2013-05-04 16:14:00,45.0,37.9,29.80,NNE,23,4.3,4.3,76,0.00,,,0.32,WUHU216HW,2013-05-04 21:14:00,
2013-05-04 16:19:00,45.0,37.5,29.80,North,0,2.0,4.3,75,0.00,,,0.32,WUHU216HW,2013-05-04 21:19:00,
2013-05-04 16:24:00,45.0,37.5,29.80,North,7,1.7,4.3,75,0.00,,,0.32,WUHU216HW,2013-05-04 21:24:00,
2013-05-04 16:29:00,45.4,37.9,29.80,NNE,23,2.2,4.0,75,0.00,,,0.32,WUHU216HW,2013-05-04 21:29:00,
2013-05-04 16:33:00,45.5,37.1,29.80,North,0,2.0,3.6,72,0.00,,,0.32,WUHU216HW,2013-05-04 21:33:00,
2013-05-04 16:38:00,45.7,37.3,29.81,North,0,0.7,3.6,72,0.00,,,0.32,WUHU216HW,2013-05-04 21:38:00,
2013-05-04 16:43:00,45.9,37.1,29.81,North,356,1.2,3.6,71,0.00,,,0.32,WUHU216HW,2013-05-04 21:43:00,
2013-05-04 16:48:00,45.9,37.5,29.81,North,0,5.1,6.3,72,0.00,,,0.32,WUHU216HW,2013-05-04 21:48:00,
2013-05-04 16:53:00,45.7,36.5,29.81,North,0,2.5,6.3,70,0.00,,,0.32,WUHU216HW,2013-05-04 21:53:00,
2013-05-04 16:59:00,45.7,36.9,29.81,North,0,0.7,3.6,71,0.00,,,0.32,WUHU216HW,2013-05-04 21:59:00,
2013-05-04 17:04:00,46.3,37.5,29.81,North,4,1.5,2.5,71,0.00,,,0.32,WUHU216HW,2013-05-04 22:04:00,
2013-05-04 17:09:00,46.3,37.8,29.81,NNW,338,2.5,4.7,72,0.00,,,0.32,WUHU216HW,2013-05-04 22:09:00,
2013-05-04 17:14:00,46.1,37.6,29.81,NNW,338,2.3,4.7,72,0.00,,,0.32,WUHU216HW,2013-05-04 22:14:00,
2013-05-04 17:19:00,45.9,37.5,29.81,NE,45,0.9,2.5,72,0.00,,,0.32,WUHU216HW,2013-05-04 22:19:00,
2013-05-04 17:24:00,45.7,37.5,29.81,SE,135,1.1,1.6,73,0.00,,,0.32,WUHU216HW,2013-05-04 22:24:00,
2013-05-04 17:29:00,45.4,37.5,29.81,NNE,20,1.0,1.1,74,0.00,,,0.32,WUHU216HW,2013-05-04 22:29:00,
2013-05-04 17:34:00,45.4,37.2,29.81,SE,135,0.4,1.1,73,0.00,,,0.32,WUHU216HW,2013-05-04 22:34:00,
2013-05-04 17:39:00,45.2,37.0,29.82,East,90,1.1,1.6,73,0.00,,,0.32,WUHU216HW,2013-05-04 22:39:00,
2013-05-04 17:44:00,45.2,37.4,29.82,NNE,16,1.8,2.5,74,0.00,,,0.32,WUHU216HW,2013-05-04 22:44:00,
2013-05-04 17:49:00,45.0,37.2,29.82,North,0,1.8,2.5,74,0.00,,,0.32,WUHU216HW,2013-05-04 22:49:00,
2013-05-04 17:54:00,45.0,37.2,29.82,North,0,1.6,2.9,74,0.00,,,0.32,WUHU216HW,2013-05-04 22:54:00,
2013-05-04 17:58:00,44.8,37.0,29.82,North,0,0.4,2.9,74,0.00,,,0.32,WUHU216HW,2013-05-04 22:58:00,
2013-05-04 18:03:00,44.8,37.0,29.82,NNE,17,0.8,1.1,74,0.00,,,0.32,WUHU216HW,2013-05-04 23:03:00,
2013-05-04 18:08:00,44.8,36.4,29.82,NNE,16,0.6,1.1,72,0.00,,,0.32,WUHU216HW,2013-05-04 23:08:00,
2013-05-04 18:13:00,44.8,36.6,29.82,North,0,0.9,1.8,73,0.00,,,0.32,WUHU216HW,2013-05-04 23:13:00,
2013-05-04 18:18:00,45.0,37.2,29.83,WNW,286,0.3,1.8,74,0.00,,,0.32,WUHU216HW,2013-05-04 23:18:00,
2013-05-04 18:23:00,45.0,37.2,29.82,North,0,1.8,1.8,74,0.00,,,0.32,WUHU216HW,2013-05-04 23:23:00,
2013-05-04 18:28:00,45.0,37.2,29.83,North,357,0.7,2.0,74,0.00,,,0.32,WUHU216HW,2013-05-04 23:28:00,
2013-05-04 18:33:00,45.2,37.4,29.83,NNW,338,1.3,2.0,74,0.00,,,0.32,WUHU216HW,2013-05-04 23:33:00,
2013-05-04 18:38:00,45.2,37.4,29.83,North,349,1.7,1.8,74,0.00,,,0.32,WUHU216HW,2013-05-04 23:38:00,
2013-05-04 18:43:00,45.2,37.0,29.83,ENE,65,1.7,2.5,73,0.00,,,0.32,WUHU216HW,2013-05-04 23:43:00,
2013-05-04 18:48:00,45.2,37.0,29.83,SSE,158,0.7,2.5,73,0.00,,,0.32,WUHU216HW,2013-05-04 23:48:00,
2013-05-04 18:53:00,45.2,37.0,29.83,NNE,14,1.5,2.2,73,0.00,,,0.32,WUHU216HW,2013-05-04 23:53:00,
2013-05-04 18:58:00,45.0,36.8,29.83,North,0,2.0,2.2,73,0.00,,,0.32,WUHU216HW,2013-05-04 23:58:00,
2013-05-04 19:03:00,45.0,36.8,29.83,North,0,1.8,2.2,73,0.00,,,0.32,WUHU216HW,2013-05-05 00:03:00,
2013-05-04 19:08:00,45.0,37.2,29.83,NNE,23,0.7,2.2,74,0.00,,,0.32,WUHU216HW,2013-05-05 00:08:00,
2013-05-04 19:14:00,45.0,37.2,29.83,North,0,2.0,2.2,74,0.00,,,0.32,WUHU216HW,2013-05-05 00:14:00,
2013-05-04 19:18:00,44.8,37.0,29.83,NNE,23,1.3,4.7,74,0.00,,,0.32,WUHU216HW,2013-05-05 00:18:00,
2013-05-04 19:24:00,44.6,36.8,29.83,North,0,1.0,4.7,74,0.00,,,0.32,WUHU216HW,2013-05-05 00:24:00,
2013-05-04 19:28:00,44.6,36.5,29.83,North,0,0.9,3.1,73,0.00,,,0.32,WUHU216HW,2013-05-05 00:28:00,
2013-05-04 19:33:00,44.5,36.6,29.83,North,0,0.4,3.1,74,0.00,,,0.32,WUHU216HW,2013-05-05 00:33:00,
2013-05-04 19:38:00,44.5,36.6,29.84,NNW,338,0.2,1.3,74,0.00,,,0.32,WUHU216HW,2013-05-05 00:38:00,
2013-05-04 19:43:00,44.3,36.5,29.84,NNW,338,1.8,1.8,74,0.00,,,0.32,WUHU216HW,2013-05-05 00:43:00,
2013-05-04 19:48:00,44.3,36.5,29.84,North,0,1.8,1.8,74,0.00,,,0.32,WUHU216HW,2013-05-05 00:48:00,
2013-05-04 19:53:00,44.1,36.4,29.84,NNE,23,1.8,1.8,74,0.00,,,0.32,WUHU216HW,2013-05-05 00:53:00,
2013-05-04 19:58:00,43.9,36.2,29.84,NNW,338,2.0,3.4,74,0.00,,,0.32,WUHU216HW,2013-05-05 00:58:00,
2013-05-04 20:03:00,43.7,36.0,29.85,NNW,338,0.2,3.4,74,0.00,,,0.32,WUHU216HW,2013-05-05 01:03:00,
2013-05-04 20:04:00,43.7,36.0,29.85,NNW,338,0.4,3.4,74,0.00,,,0.32,WUHU216HW,2013-05-05 01:04:00,
2013-05-04 20:09:00,43.6,35.8,29.85,NNE,23,0.2,1.1,74,0.00,,,0.32,WUHU216HW,2013-05-05 01:09:00,
2013-05-04 20:14:00,43.4,36.0,29.85,NNE,23,0.4,1.1,75,0.00,,,0.32,WUHU216HW,2013-05-05 01:14:00,
2013-05-04 20:19:00,43.2,35.8,29.85,North,0,0.9,1.6,75,0.00,,,0.32,WUHU216HW,2013-05-05 01:19:00,
2013-05-04 20:24:00,43.0,36.0,29.85,North,0,0.9,1.6,76,0.00,,,0.32,WUHU216HW,2013-05-05 01:24:00,
2013-05-04 20:29:00,42.8,35.8,29.85,NNW,338,0.6,0.9,76,0.00,,,0.32,WUHU216HW,2013-05-05 01:29:00,
2013-05-04 20:34:00,42.8,35.8,29.86,North,0,0.2,0.9,76,0.00,,,0.32,WUHU216HW,2013-05-05 01:34:00,
2013-05-04 20:39:00,42.7,35.9,29.86,North,0,0.0,0.9,77,0.00,,,0.32,WUHU216HW,2013-05-05 01:39:00,
2013-05-04 20:44:00,42.7,35.9,29.86,NNW,338,0.0,0.4,77,0.00,,,0.32,WUHU216HW,2013-05-05 01:44:00,
2013-05-04 20:49:00,42.7,35.9,29.86,NNW,338,0.0,0.4,77,0.00,,,0.32,WUHU216HW,2013-05-05 01:49:00,
2013-05-04 20:54:00,42.5,35.7,29.86,NNW,338,0.0,0.0,77,0.00,,,0.32,WUHU216HW,2013-05-05 01:54:00,
2013-05-04 20:59:00,42.3,35.9,29.86,NNW,338,0.0,0.0,78,0.00,,,0.32,WUHU216HW,2013-05-05 01:59:00,
2013-05-04 21:04:00,42.3,36.2,29.86,NNW,338,0.0,0.0,79,0.00,,,0.32,WUHU216HW,2013-05-05 02:04:00,
2013-05-04 21:09:00,42.1,36.0,29.86,NNW,338,0.0,0.0,79,0.00,,,0.32,WUHU216HW,2013-05-05 02:09:00,
2013-05-04 21:14:00,42.1,36.0,29.86,NNW,338,0.0,0.0,79,0.00,,,0.32,WUHU216HW,2013-05-05 02:14:00,
2013-05-04 21:19:00,41.9,36.2,29.86,NNW,338,0.0,0.0,80,0.00,,,0.32,WUHU216HW,2013-05-05 02:19:00,
2013-05-04 21:24:00,41.8,36.0,29.86,NNW,338,0.0,0.0,80,0.00,,,0.32,WUHU216HW,2013-05-05 02:24:00,
2013-05-04 21:29:00,41.6,35.8,29.87,NNW,338,0.0,0.0,80,0.00,,,0.32,WUHU216HW,2013-05-05 02:29:00,
2013-05-04 21:34:00,41.4,35.9,29.87,NNW,338,0.0,0.0,81,0.00,,,0.32,WUHU216HW,2013-05-05 02:34:00,
2013-05-04 21:39:00,41.2,35.7,29.87,NNW,338,0.0,0.0,81,0.00,,,0.32,WUHU216HW,2013-05-05 02:39:00,
2013-05-04 21:44:00,40.9,35.5,29.87,NNW,338,0.0,0.0,81,0.00,,,0.32,WUHU216HW,2013-05-05 02:44:00,
2013-05-04 21:49:00,40.7,35.3,29.87,NNW,338,0.0,0.0,81,0.00,,,0.32,WUHU216HW,2013-05-05 02:49:00,
2013-05-04 21:54:00,40.5,35.1,29.88,NNW,338,0.0,0.0,81,0.00,,,0.32,WUHU216HW,2013-05-05 02:54:00,
2013-05-04 21:59:00,40.5,35.4,29.88,NNW,338,0.0,0.0,82,0.00,,,0.32,WUHU216HW,2013-05-05 02:59:00,
2013-05-04 22:04:00,40.7,35.6,29.88,NNW,338,0.4,0.4,82,0.00,,,0.32,WUHU216HW,2013-05-05 03:04:00,
2013-05-04 22:09:00,40.7,35.6,29.88,NNW,338,0.0,0.4,82,0.00,,,0.32,WUHU216HW,2013-05-05 03:09:00,
2013-05-04 22:14:00,40.9,36.0,29.88,NNW,338,0.0,0.2,83,0.00,,,0.32,WUHU216HW,2013-05-05 03:14:00,
2013-05-04 22:19:00,41.0,35.9,29.88,NNW,338,0.0,0.2,82,0.00,,,0.32,WUHU216HW,2013-05-05 03:19:00,
2013-05-04 22:24:00,41.0,36.2,29.88,North,0,0.1,0.4,83,0.00,,,0.32,WUHU216HW,2013-05-05 03:24:00,
2013-05-04 22:29:00,41.2,36.4,29.88,North,0,0.2,0.4,83,0.00,,,0.32,WUHU216HW,2013-05-05 03:29:00,
2013-05-04 22:34:00,41.4,36.5,29.88,North,0,0.0,0.2,83,0.00,,,0.32,WUHU216HW,2013-05-05 03:34:00,
2013-05-04 22:39:00,41.4,36.5,29.88,North,0,0.1,0.4,83,0.00,,,0.32,WUHU216HW,2013-05-05 03:39:00,
2013-05-04 22:44:00,41.4,36.3,29.89,North,0,0.2,0.4,82,0.00,,,0.32,WUHU216HW,2013-05-05 03:44:00,
2013-05-04 22:49:00,41.4,36.3,29.88,North,0,0.0,0.2,82,0.00,,,0.32,WUHU216HW,2013-05-05 03:49:00,
2013-05-04 22:54:00,41.4,36.5,29.88,North,0,0.1,0.2,83,0.00,,,0.32,WUHU216HW,2013-05-05 03:54:00,
2013-05-04 22:59:00,41.6,36.5,29.88,North,0,0.6,0.7,82,0.00,,,0.32,WUHU216HW,2013-05-05 03:59:00,
2013-05-04 23:01:00,41.6,36.5,29.88,North,0,0.4,0.7,82,0.00,,,0.32,WUHU216HW,2013-05-05 04:01:00,
2013-05-04 23:06:00,41.6,36.5,29.88,North,0,0.4,0.7,82,0.00,,,0.32,WUHU216HW,2013-05-05 04:06:00,
2013-05-04 23:11:00,41.8,36.6,29.88,North,0,1.1,1.1,82,0.00,,,0.32,WUHU216HW,2013-05-05 04:11:00,
2013-05-04 23:16:00,41.8,36.9,29.88,NNE,23,0.7,1.1,83,0.00,,,0.32,WUHU216HW,2013-05-05 04:16:00,
2013-05-04 23:21:00,41.9,37.1,29.88,North,357,1.1,1.6,83,0.00,,,0.32,WUHU216HW,2013-05-05 04:21:00,
2013-05-04 23:26:00,41.9,37.1,29.88,North,0,2.2,3.4,83,0.00,,,0.32,WUHU216HW,2013-05-05 04:26:00,
2013-05-04 23:31:00,42.1,37.3,29.88,NNW,338,1.8,3.4,83,0.00,,,0.32,WUHU216HW,2013-05-05 04:31:00,
2013-05-04 23:36:00,42.1,37.3,29.88,NNE,23,2.5,2.5,83,0.00,,,0.32,WUHU216HW,2013-05-05 04:36:00,
2013-05-04 23:41:00,42.3,37.8,29.88,North,0,2.3,4.7,84,0.00,,,0.32,WUHU216HW,2013-05-05 04:41:00,
2013-05-04 23:46:00,42.3,37.8,29.88,North,0,0.8,4.7,84,0.00,,,0.32,WUHU216HW,2013-05-05 04:46:00,
2013-05-04 23:51:00,42.3,37.8,29.88,North,0,1.8,3.1,84,0.00,,,0.32,WUHU216HW,2013-05-05 04:51:00,
2013-05-04 23:56:00,42.3,37.8,29.88,North,357,1.3,3.1,84,0.00,,,0.32,WUHU216HW,2013-05-05 04:56:00,